Flag for Puerto Rico Weather past 2 weeks in Ponce, Puerto Rico

Now
73 °F

Passing clouds.


Feels Like: 74 °F
Forecast: 68 / 86 °F
Wind: 6 mph from Northeast

Location: Ponce / Mercedita

Current Time: Jan 26, 2015 at 4:51:49 AM

Latest Report: Jan 26, 2015 at 3:50 AM


Visibility: 10 mi

Pressure: 29.94 "Hg

Humidity: 78%

Dew point: 66 °F

Location of PonceLocation

Historic Weather in Ponce — Graph

°F

Ponce temperature yesterday

Maximum temperature yesterday: 88 °F (at 10:50 AM)
Minimum temperature yesterday: 70 °F (at 6:50 AM)
Average temperature yesterday: 78 °F

Past Weeks' High & Low Weather Summary

 TemperatureHumidityPressure
High90 °F (Jan 11, 3:50 PM)100% (Jan 17, 10:50 PM)30.07 "Hg (Jan 17, 10:50 PM)
Low64 °F (Jan 20, 6:50 AM)46% (Jan 11, 3:50 PM)29.91 "Hg (Jan 22, 4:50 AM)
Average76 °F80%29.98 "Hg
* Reported Jan 11 3:50 AM — Jan 26 3:50 AM, Ponce, Weather by CustomWeather, © 2014

Note: Actual official high and low records may vary slightly from our data, if they occured in-between our weather recording intervals... More about our weather records

Advertising

Ponce weather history for previous 24 hours

 ConditionsComfort  
Time TempWeatherWind HumidityBarometerVisibility
3:50 AM
Jan 26
73 °FPassing clouds.6 mph78%29.94 "Hg10 mi
2:50 AM73 °FClear.No wind78%29.94 "Hg10 mi
12:50 AM73 °FClear.No wind78%29.98 "Hg10 mi
11:50 PM
Jan 25
73 °FPassing clouds.No wind78%29.99 "Hg10 mi
10:50 PM73 °FPassing clouds.No wind78%29.99 "Hg10 mi
9:50 PM73 °FPassing clouds.No wind89%29.98 "Hg10 mi
8:50 PM75 °FClear.No wind83%29.97 "Hg10 mi
7:50 PM79 °FPassing clouds.7 mph74%29.97 "Hg10 mi
6:50 PM79 °FPartly sunny.6 mph79%29.95 "Hg10 mi
5:50 PM82 °FPartly sunny.9 mph70%29.93 "Hg10 mi
4:50 PM84 °FScattered clouds.14 mph66%29.93 "Hg10 mi
3:50 PM84 °FPassing clouds.12 mph66%29.93 "Hg10 mi
2:50 PM86 °FPassing clouds.12 mph62%29.94 "Hg10 mi
1:50 PM86 °FPassing clouds.12 mph66%29.96 "Hg10 mi
10:50 AM88 °FPassing clouds.12 mph62%30.00 "Hg10 mi
8:50 AM79 °FPassing clouds.6 mph74%30.00 "Hg10 mi
6:50 AM70 °FPassing clouds.6 mph83%29.97 "Hg10 mi
4:50 AM72 °FClear.No wind88%29.97 "Hg10 mi
Weather by CustomWeather, © 2014

See weather overviewHow to use our weather pages